Time,TemperatureF,DewpointF,PressureIn,WindDirection,WindDirectionDegrees,WindSpeedMPH,WindSpeedGustMPH,Humidity,HourlyPrecipIn,Conditions,Clouds,dailyrainin,SoftwareType,DateUTC
2013-07-22 00:02:00,73.8,61.3,29.69,WNW,285,0.0,0.0,65,0.00,,,0.00,meteohub,2013-07-22 06:02:00,
2013-07-22 00:08:00,73.9,61.9,29.69,WNW,285,0.0,0.0,66,0.00,,,0.00,meteohub,2013-07-22 06:08:00,
2013-07-22 00:13:00,73.8,61.7,29.69,WNW,285,0.0,0.0,66,0.00,,,0.00,meteohub,2013-07-22 06:13:00,
2013-07-22 00:18:00,73.8,61.7,29.69,WNW,285,0.0,0.0,66,0.00,,,0.00,meteohub,2013-07-22 06:18:00,
2013-07-22 00:23:00,73.8,61.7,29.69,WNW,285,0.0,0.0,66,0.00,,,0.00,meteohub,2013-07-22 06:23:00,
2013-07-22 00:28:00,73.8,61.7,29.69,WNW,285,0.0,0.0,66,0.00,,,0.00,meteohub,2013-07-22 06:28:00,
2013-07-22 00:33:00,73.8,62.1,29.69,WNW,285,0.0,0.0,67,0.00,,,0.00,meteohub,2013-07-22 06:33:00,
2013-07-22 00:39:00,73.6,62.4,29.69,WNW,285,0.0,0.0,68,0.00,,,0.00,meteohub,2013-07-22 06:39:00,
2013-07-22 00:44:00,73.2,63.3,29.69,SSW,212,0.0,0.0,71,0.00,,,0.00,meteohub,2013-07-22 06:44:00,
2013-07-22 00:49:00,72.9,63.0,29.69,SSW,211,0.0,0.0,71,0.00,,,0.00,meteohub,2013-07-22 06:49:00,
2013-07-22 00:54:00,72.3,63.1,29.69,SSW,211,0.0,0.0,73,0.00,,,0.00,meteohub,2013-07-22 06:54:00,
2013-07-22 00:59:00,72.0,63.1,29.69,SSW,205,0.0,0.0,74,0.00,,,0.00,meteohub,2013-07-22 06:59:00,
2013-07-22 01:04:00,71.4,62.8,29.69,SSW,205,0.0,0.0,74,0.00,,,0.00,meteohub,2013-07-22 07:04:00,
2013-07-22 01:10:00,71.2,63.0,29.69,SSW,205,0.0,0.0,75,0.00,,,0.00,meteohub,2013-07-22 07:10:00,
2013-07-22 01:11:00,71.2,63.0,29.69,SSW,205,0.0,0.0,75,0.00,,,0.00,meteohub,2013-07-22 07:11:00,
2013-07-22 01:16:00,71.2,63.0,29.69,SSW,205,0.0,0.0,75,0.00,,,0.00,meteohub,2013-07-22 07:16:00,
2013-07-22 01:21:00,71.1,62.8,29.69,SSW,205,0.0,0.0,75,0.00,,,0.00,meteohub,2013-07-22 07:21:00,
2013-07-22 01:26:00,71.1,63.1,29.69,SSW,205,0.0,0.0,76,0.00,,,0.00,meteohub,2013-07-22 07:26:00,
2013-07-22 01:32:00,70.9,63.0,29.69,SSW,205,0.0,0.0,76,0.00,,,0.00,meteohub,2013-07-22 07:32:00,
2013-07-22 01:37:00,70.9,63.0,29.69,SSW,205,0.0,0.0,76,0.00,,,0.00,meteohub,2013-07-22 07:37:00,
2013-07-22 01:42:00,71.1,63.1,29.70,SSW,205,0.0,0.0,76,0.00,,,0.00,meteohub,2013-07-22 07:42:00,
2013-07-22 01:47:00,71.1,63.1,29.69,SSW,205,0.0,0.0,76,0.00,,,0.00,meteohub,2013-07-22 07:47:00,
2013-07-22 01:52:00,71.1,63.5,29.69,SSW,205,0.0,0.0,77,0.00,,,0.00,meteohub,2013-07-22 07:52:00,
2013-07-22 01:57:00,71.1,63.5,29.69,SSW,205,0.0,0.0,77,0.00,,,0.00,meteohub,2013-07-22 07:57:00,
2013-07-22 02:02:00,70.9,63.3,29.69,SSW,205,0.0,0.0,77,0.00,,,0.00,meteohub,2013-07-22 08:02:00,
2013-07-22 02:07:00,70.5,63.3,29.69,SSW,205,0.0,0.0,78,0.00,,,0.00,meteohub,2013-07-22 08:07:00,
2013-07-22 02:12:00,70.3,63.1,29.69,SSW,205,0.0,0.0,78,0.00,,,0.00,meteohub,2013-07-22 08:12:00,
2013-07-22 02:17:00,70.2,63.3,29.69,SSW,205,0.0,0.0,79,0.00,,,0.00,meteohub,2013-07-22 08:17:00,
2013-07-22 02:22:00,70.2,63.7,29.69,SSW,205,0.0,0.0,80,0.00,,,0.00,meteohub,2013-07-22 08:22:00,
2013-07-22 02:27:00,70.0,63.5,29.69,SSW,205,0.0,0.0,80,0.00,,,0.00,meteohub,2013-07-22 08:27:00,
2013-07-22 02:32:00,70.0,63.9,29.69,SSW,202,0.0,0.0,81,0.00,,,0.00,meteohub,2013-07-22 08:32:00,
2013-07-22 02:37:00,69.8,63.7,29.69,SSW,202,0.0,0.0,81,0.00,,,0.00,meteohub,2013-07-22 08:37:00,
2013-07-22 02:42:00,69.6,63.1,29.69,SSW,202,0.0,0.0,80,0.00,,,0.00,meteohub,2013-07-22 08:42:00,
2013-07-22 02:47:00,69.4,63.0,29.68,SSW,199,0.0,0.0,80,0.00,,,0.00,meteohub,2013-07-22 08:47:00,
2013-07-22 02:52:00,69.6,63.1,29.68,SSW,199,0.0,0.0,80,0.00,,,0.00,meteohub,2013-07-22 08:52:00,
2013-07-22 02:57:00,69.6,63.1,29.68,SSW,199,0.0,0.0,80,0.00,,,0.00,meteohub,2013-07-22 08:57:00,
2013-07-22 03:02:00,69.6,62.8,29.68,SSW,198,0.0,0.0,79,0.00,,,0.00,meteohub,2013-07-22 09:02:00,
2013-07-22 03:07:00,69.6,62.8,29.68,SSW,198,0.0,0.0,79,0.00,,,0.00,meteohub,2013-07-22 09:07:00,
2013-07-22 03:12:00,69.8,63.0,29.68,SSW,198,0.0,0.0,79,0.00,,,0.00,meteohub,2013-07-22 09:12:00,
2013-07-22 03:17:00,70.0,63.1,29.68,SSW,198,0.0,0.0,79,0.00,,,0.00,meteohub,2013-07-22 09:17:00,
2013-07-22 03:22:00,70.0,63.1,29.69,SSW,198,0.0,0.0,79,0.00,,,0.00,meteohub,2013-07-22 09:22:00,
2013-07-22 03:28:00,70.0,63.5,29.69,SSW,196,0.0,0.0,80,0.00,,,0.00,meteohub,2013-07-22 09:28:00,
2013-07-22 03:33:00,69.8,63.7,29.69,SSW,196,0.0,0.0,81,0.00,,,0.00,meteohub,2013-07-22 09:33:00,
2013-07-22 03:38:00,69.6,63.5,29.68,SSW,196,0.0,0.0,81,0.00,,,0.00,meteohub,2013-07-22 09:38:00,
2013-07-22 03:43:00,69.6,63.5,29.68,SSW,196,0.0,0.0,81,0.00,,,0.00,meteohub,2013-07-22 09:43:00,
2013-07-22 03:48:00,69.6,63.5,29.68,SSW,193,0.0,0.0,81,0.00,,,0.00,meteohub,2013-07-22 09:48:00,
2013-07-22 03:54:00,69.6,63.5,29.68,South,188,0.0,0.0,81,0.00,,,0.00,meteohub,2013-07-22 09:54:00,
2013-07-22 03:59:00,69.8,63.7,29.68,East,91,0.0,0.0,81,0.00,,,0.00,meteohub,2013-07-22 09:59:00,
2013-07-22 04:04:00,69.8,63.7,29.68,East,92,0.0,0.0,81,0.00,,,0.00,meteohub,2013-07-22 10:04:00,
2013-07-22 04:09:00,69.8,63.3,29.68,East,89,0.0,0.0,80,0.00,,,0.00,meteohub,2013-07-22 10:09:00,
2013-07-22 04:14:00,69.8,63.3,29.68,East,90,0.0,0.0,80,0.00,,,0.00,meteohub,2013-07-22 10:14:00,
2013-07-22 04:19:00,69.8,63.3,29.68,East,89,0.0,0.0,80,0.00,,,0.00,meteohub,2013-07-22 10:19:00,
2013-07-22 04:24:00,70.0,63.5,29.68,East,88,0.0,0.0,80,0.00,,,0.00,meteohub,2013-07-22 10:24:00,
2013-07-22 04:30:00,69.8,63.3,29.68,East,89,0.0,0.0,80,0.00,,,0.00,meteohub,2013-07-22 10:30:00,
2013-07-22 04:35:00,69.6,63.5,29.68,East,90,0.0,0.0,81,0.00,,,0.00,meteohub,2013-07-22 10:35:00,
2013-07-22 04:40:00,69.6,63.5,29.68,East,90,0.0,0.0,81,0.00,,,0.00,meteohub,2013-07-22 10:40:00,
2013-07-22 04:45:00,69.6,63.5,29.68,East,90,0.0,0.0,81,0.00,,,0.00,meteohub,2013-07-22 10:45:00,
2013-07-22 04:50:00,69.6,63.1,29.68,East,90,0.0,0.0,80,0.00,,,0.00,meteohub,2013-07-22 10:50:00,
2013-07-22 04:55:00,69.6,63.1,29.68,East,90,0.0,0.0,80,0.00,,,0.00,meteohub,2013-07-22 10:55:00,
2013-07-22 05:01:00,69.6,63.1,29.68,East,90,0.0,0.0,80,0.00,,,0.00,meteohub,2013-07-22 11:01:00,
2013-07-22 05:06:00,69.6,63.1,29.68,East,91,0.0,0.0,80,0.00,,,0.00,meteohub,2013-07-22 11:06:00,
2013-07-22 05:11:00,69.6,63.1,29.68,East,93,0.0,0.0,80,0.00,,,0.00,meteohub,2013-07-22 11:11:00,
2013-07-22 05:16:00,69.6,63.1,29.69,SE,128,0.0,0.0,80,0.00,,,0.00,meteohub,2013-07-22 11:16:00,
2013-07-22 05:21:00,69.6,63.1,29.69,East,97,0.0,0.0,80,0.00,,,0.00,meteohub,2013-07-22 11:21:00,
2013-07-22 05:27:00,69.6,63.5,29.69,East,101,0.0,0.0,81,0.00,,,0.00,meteohub,2013-07-22 11:27:00,
2013-07-22 05:32:00,69.6,63.5,29.69,ESE,105,0.0,0.0,81,0.00,,,0.00,meteohub,2013-07-22 11:32:00,
2013-07-22 05:37:00,69.4,63.7,29.69,ESE,106,0.0,0.0,82,0.00,,,0.00,meteohub,2013-07-22 11:37:00,
2013-07-22 05:42:00,69.4,63.7,29.69,ESE,107,0.0,0.0,82,0.00,,,0.00,meteohub,2013-07-22 11:42:00,
2013-07-22 05:47:00,69.3,63.5,29.69,ESE,107,0.0,0.0,82,0.00,,,0.00,meteohub,2013-07-22 11:47:00,
2013-07-22 05:53:00,69.3,63.9,29.69,ESE,107,0.0,0.0,83,0.00,,,0.00,meteohub,2013-07-22 11:53:00,
2013-07-22 05:58:00,69.3,63.9,29.70,ESE,107,0.0,0.0,83,0.00,,,0.00,meteohub,2013-07-22 11:58:00,
2013-07-22 06:03:00,69.3,63.9,29.70,ESE,107,0.0,0.0,83,0.00,,,0.00,meteohub,2013-07-22 12:03:00,
2013-07-22 06:08:00,69.1,63.7,29.70,ESE,107,0.0,0.0,83,0.00,,,0.00,meteohub,2013-07-22 12:08:00,
2013-07-22 06:13:00,69.1,63.7,29.70,ESE,107,0.0,0.0,83,0.00,,,0.00,meteohub,2013-07-22 12:13:00,
2013-07-22 06:18:00,69.1,63.7,29.70,ESE,107,0.0,0.0,83,0.00,,,0.00,meteohub,2013-07-22 12:18:00,
2013-07-22 06:24:00,69.1,63.7,29.70,ESE,107,0.0,0.0,83,0.00,,,0.00,meteohub,2013-07-22 12:24:00,
2013-07-22 06:29:00,69.1,63.7,29.70,ESE,107,0.0,0.0,83,0.00,,,0.00,meteohub,2013-07-22 12:29:00,
2013-07-22 06:34:00,69.1,63.7,29.70,ESE,107,0.0,0.0,83,0.00,,,0.00,meteohub,2013-07-22 12:34:00,
2013-07-22 06:39:00,69.1,63.7,29.70,ESE,107,0.0,0.0,83,0.00,,,0.00,meteohub,2013-07-22 12:39:00,
2013-07-22 06:44:00,69.1,63.7,29.70,ESE,107,0.0,0.0,83,0.00,,,0.00,meteohub,2013-07-22 12:44:00,
2013-07-22 06:50:00,69.3,63.9,29.70,ESE,107,0.0,0.0,83,0.00,,,0.00,meteohub,2013-07-22 12:50:00,
2013-07-22 06:55:00,69.6,63.9,29.70,ESE,112,0.0,0.0,82,0.00,,,0.00,meteohub,2013-07-22 12:55:00,
2013-07-22 07:00:00,70.0,64.2,29.70,ESE,119,0.0,0.0,82,0.00,,,0.00,meteohub,2013-07-22 13:00:00,
2013-07-22 07:05:00,70.3,64.2,29.70,ESE,119,0.0,0.0,81,0.00,,,0.00,meteohub,2013-07-22 13:05:00,
2013-07-22 07:10:00,70.3,64.2,29.70,ESE,111,0.0,0.0,81,0.00,,,0.00,meteohub,2013-07-22 13:10:00,
2013-07-22 07:16:00,70.5,64.4,29.70,East,88,0.0,0.0,81,0.00,,,0.00,meteohub,2013-07-22 13:16:00,
2013-07-22 07:21:00,70.9,64.4,29.71,East,96,0.0,0.0,80,0.00,,,0.00,meteohub,2013-07-22 13:21:00,
2013-07-22 07:26:00,71.1,64.6,29.71,East,98,0.0,0.0,80,0.00,,,0.00,meteohub,2013-07-22 13:26:00,
2013-07-22 07:31:00,71.4,64.6,29.71,East,101,0.0,0.0,79,0.00,,,0.00,meteohub,2013-07-22 13:31:00,
2013-07-22 07:36:00,71.6,64.4,29.72,ESE,102,0.0,0.0,78,0.00,,,0.00,meteohub,2013-07-22 13:36:00,
2013-07-22 07:41:00,72.0,64.8,29.72,ESE,103,0.0,0.0,78,0.00,,,0.00,meteohub,2013-07-22 13:41:00,
2013-07-22 07:47:00,72.1,64.9,29.72,ESE,103,0.0,0.0,78,0.00,,,0.00,meteohub,2013-07-22 13:47:00,
2013-07-22 07:52:00,72.5,64.9,29.72,ESE,103,0.0,0.0,77,0.00,,,0.00,meteohub,2013-07-22 13:52:00,
2013-07-22 07:57:00,72.9,65.3,29.72,ESE,103,0.0,0.0,77,0.00,,,0.00,meteohub,2013-07-22 13:57:00,
2013-07-22 08:02:00,73.2,65.1,29.72,ESE,103,0.0,0.0,76,0.00,,,0.00,meteohub,2013-07-22 14:02:00,
2013-07-22 08:07:00,73.6,65.5,29.72,SW,230,0.0,0.0,76,0.00,,,0.00,meteohub,2013-07-22 14:07:00,
2013-07-22 08:12:00,73.9,65.5,29.72,ESE,122,0.0,0.0,75,0.00,,,0.00,meteohub,2013-07-22 14:12:00,
2013-07-22 08:17:00,74.5,65.7,29.72,ESE,109,0.0,0.0,74,0.00,,,0.00,meteohub,2013-07-22 14:17:00,
2013-07-22 08:22:00,74.7,65.8,29.73,ESE,110,0.0,0.0,74,0.00,,,0.00,meteohub,2013-07-22 14:22:00,
2013-07-22 08:27:00,75.0,65.8,29.73,South,183,0.0,0.0,73,0.00,,,0.00,meteohub,2013-07-22 14:27:00,
2013-07-22 08:32:00,75.2,65.5,29.73,South,184,0.0,0.0,72,0.00,,,0.00,meteohub,2013-07-22 14:32:00,
2013-07-22 08:37:00,75.6,65.5,29.73,South,182,0.0,0.0,71,0.00,,,0.00,meteohub,2013-07-22 14:37:00,
2013-07-22 08:42:00,75.7,65.7,29.73,SE,125,0.0,0.0,71,0.00,,,0.00,meteohub,2013-07-22 14:42:00,
2013-07-22 08:48:00,76.1,66.0,29.72,ESE,118,0.0,0.0,71,0.00,,,0.00,meteohub,2013-07-22 14:48:00,
2013-07-22 08:53:00,76.6,66.2,29.73,ESE,118,0.0,0.0,70,0.00,,,0.00,meteohub,2013-07-22 14:53:00,
2013-07-22 08:58:00,77.0,66.0,29.73,ESE,120,0.0,0.0,69,0.00,,,0.00,meteohub,2013-07-22 14:58:00,
2013-07-22 09:03:00,77.4,66.0,29.73,ESE,114,0.0,0.0,68,0.00,,,0.00,meteohub,2013-07-22 15:03:00,
2013-07-22 09:08:00,77.7,65.5,29.72,South,174,0.0,0.0,66,0.00,,,0.00,meteohub,2013-07-22 15:08:00,
2013-07-22 09:13:00,78.1,66.2,29.73,South,173,0.0,0.0,67,0.00,,,0.00,meteohub,2013-07-22 15:13:00,
2013-07-22 09:19:00,78.4,66.2,29.73,South,184,0.0,0.0,66,0.00,,,0.00,meteohub,2013-07-22 15:19:00,
2013-07-22 09:24:00,78.6,66.4,29.73,South,185,0.0,0.0,66,0.00,,,0.00,meteohub,2013-07-22 15:24:00,
2013-07-22 09:29:00,79.0,66.2,29.73,South,186,0.0,0.0,65,0.00,,,0.00,meteohub,2013-07-22 15:29:00,
2013-07-22 09:34:00,79.3,66.6,29.73,East,99,0.0,0.0,65,0.00,,,0.00,meteohub,2013-07-22 15:34:00,
2013-07-22 09:39:00,79.5,66.2,29.73,SSW,202,0.0,0.0,64,0.00,,,0.00,meteohub,2013-07-22 15:39:00,
2013-07-22 09:44:00,79.2,66.4,29.73,SSW,202,0.0,0.0,65,0.00,,,0.00,meteohub,2013-07-22 15:44:00,
2013-07-22 09:50:00,79.2,66.7,29.73,SSW,198,0.0,0.0,66,0.00,,,0.00,meteohub,2013-07-22 15:50:00,
2013-07-22 09:55:00,79.2,66.4,29.73,WSW,247,0.0,0.0,65,0.00,,,0.00,meteohub,2013-07-22 15:55:00,
2013-07-22 10:00:00,79.5,66.7,29.73,WSW,240,0.0,0.0,65,0.00,,,0.00,meteohub,2013-07-22 16:00:00,
2013-07-22 10:05:00,79.9,67.5,29.73,SW,226,0.0,0.0,66,0.00,,,0.00,meteohub,2013-07-22 16:05:00,
2013-07-22 10:10:00,80.2,67.5,29.73,SSW,194,0.0,0.0,65,0.00,,,0.00,meteohub,2013-07-22 16:10:00,
2013-07-22 10:16:00,80.2,66.9,29.73,SSW,211,0.0,0.0,64,0.00,,,0.00,meteohub,2013-07-22 16:16:00,
2013-07-22 10:21:00,80.2,66.9,29.73,WSW,247,0.0,0.0,64,0.00,,,0.00,meteohub,2013-07-22 16:21:00,
2013-07-22 10:26:00,80.4,67.1,29.72,WSW,246,0.0,0.0,64,0.00,,,0.00,meteohub,2013-07-22 16:26:00,
2013-07-22 10:31:00,80.6,66.9,29.73,WSW,242,0.0,0.0,63,0.00,,,0.00,meteohub,2013-07-22 16:31:00,
2013-07-22 10:36:00,80.8,67.5,29.73,WSW,239,0.0,0.0,64,0.00,,,0.00,meteohub,2013-07-22 16:36:00,
2013-07-22 10:41:00,81.1,67.3,29.73,SW,232,0.0,0.0,63,0.00,,,0.00,meteohub,2013-07-22 16:41:00,
2013-07-22 10:47:00,81.9,67.6,29.72,SW,229,0.0,0.0,62,0.00,,,0.00,meteohub,2013-07-22 16:47:00,
2013-07-22 10:52:00,82.2,66.9,29.72,SSW,208,0.0,0.0,60,0.00,,,0.00,meteohub,2013-07-22 16:52:00,
2013-07-22 10:57:00,82.0,67.3,29.72,SSW,204,0.0,0.0,61,0.00,,,0.00,meteohub,2013-07-22 16:57:00,
2013-07-22 11:02:00,82.2,66.9,29.72,East,84,0.0,0.0,60,0.00,,,0.00,meteohub,2013-07-22 17:02:00,
2013-07-22 11:07:00,82.6,66.7,29.72,SSW,204,0.0,0.0,59,0.00,,,0.00,meteohub,2013-07-22 17:07:00,
2013-07-22 11:12:00,82.9,66.6,29.72,SSW,212,0.0,0.0,58,0.00,,,0.00,meteohub,2013-07-22 17:12:00,
2013-07-22 11:17:00,83.1,66.4,29.73,SSW,205,0.0,0.0,57,0.00,,,0.00,meteohub,2013-07-22 17:17:00,
2013-07-22 11:22:00,82.9,66.6,29.72,SSW,204,0.0,0.0,58,0.00,,,0.00,meteohub,2013-07-22 17:22:00,
2013-07-22 11:27:00,83.5,66.2,29.73,SSW,194,0.0,0.0,56,0.00,,,0.00,meteohub,2013-07-22 17:27:00,
2013-07-22 11:32:00,83.8,66.4,29.72,SW,215,0.0,0.0,56,0.00,,,0.00,meteohub,2013-07-22 17:32:00,
2013-07-22 11:37:00,84.4,68.0,29.72,SSW,208,0.0,0.0,58,0.00,,,0.00,meteohub,2013-07-22 17:37:00,
2013-07-22 11:42:00,85.3,66.7,29.71,South,190,0.0,0.0,54,0.00,,,0.00,meteohub,2013-07-22 17:42:00,
2013-07-22 11:48:00,84.9,66.4,29.71,East,100,0.0,0.0,54,0.00,,,0.00,meteohub,2013-07-22 17:48:00,
2013-07-22 11:53:00,85.3,66.2,29.71,SSW,213,0.0,0.0,53,0.00,,,0.00,meteohub,2013-07-22 17:53:00,
2013-07-22 11:58:00,85.8,67.3,29.71,SSW,209,0.0,0.0,54,0.00,,,0.00,meteohub,2013-07-22 17:58:00,
2013-07-22 12:04:00,86.5,66.7,29.71,SSW,202,0.0,0.0,52,0.00,,,0.00,meteohub,2013-07-22 18:04:00,
2013-07-22 12:10:00,86.7,66.4,29.71,SSW,201,0.0,0.0,51,0.00,,,0.00,meteohub,2013-07-22 18:10:00,
2013-07-22 12:15:00,87.3,66.9,29.71,SSW,206,0.0,0.0,51,0.00,,,0.00,meteohub,2013-07-22 18:15:00,
2013-07-22 12:21:00,87.4,66.6,29.71,ENE,71,0.0,0.0,50,0.00,,,0.00,meteohub,2013-07-22 18:21:00,
2013-07-22 12:27:00,88.3,66.2,29.71,East,97,0.0,0.0,48,0.00,,,0.00,meteohub,2013-07-22 18:27:00,
2013-07-22 12:32:00,88.9,67.3,29.70,ESE,117,0.0,0.0,49,0.00,,,0.00,meteohub,2013-07-22 18:32:00,
2013-07-22 12:37:00,89.2,66.9,29.70,East,86,0.0,0.0,48,0.00,,,0.00,meteohub,2013-07-22 18:37:00,
2013-07-22 12:42:00,89.2,66.4,29.70,ESE,113,0.0,0.0,47,0.00,,,0.00,meteohub,2013-07-22 18:42:00,
2013-07-22 12:49:00,89.4,66.6,29.70,SSW,194,0.0,0.0,47,0.00,,,0.00,meteohub,2013-07-22 18:49:00,
2013-07-22 12:57:00,90.0,66.4,29.69,SSE,165,0.0,0.0,46,0.00,,,0.00,meteohub,2013-07-22 18:57:00,
2013-07-22 13:02:00,90.1,65.3,29.68,ESE,122,0.0,0.0,44,0.00,,,0.00,meteohub,2013-07-22 19:02:00,
2013-07-22 13:07:00,90.3,66.0,29.68,SE,132,0.0,0.0,45,0.00,,,0.00,meteohub,2013-07-22 19:07:00,
2013-07-22 13:12:00,90.5,64.9,29.68,SW,227,0.0,0.0,43,0.00,,,0.00,meteohub,2013-07-22 19:12:00,
2013-07-22 13:17:00,90.1,65.3,29.68,SW,223,0.0,0.0,44,0.00,,,0.00,meteohub,2013-07-22 19:17:00,
2013-07-22 13:22:00,90.5,64.2,29.67,SW,223,0.0,0.0,42,0.00,,,0.00,meteohub,2013-07-22 19:22:00,
2013-07-22 13:29:00,91.2,66.2,29.67,SW,219,0.0,0.0,44,0.00,,,0.00,meteohub,2013-07-22 19:29:00,
2013-07-22 13:35:00,91.9,65.5,29.67,SE,124,0.0,0.0,42,0.00,,,0.00,meteohub,2013-07-22 19:35:00,
2013-07-22 13:40:00,91.2,64.2,29.65,East,79,0.0,0.0,41,0.00,,,0.00,meteohub,2013-07-22 19:40:00,
2013-07-22 13:45:00,91.4,64.4,29.65,SSW,205,0.0,0.0,41,0.00,,,0.00,meteohub,2013-07-22 19:45:00,
2013-07-22 13:52:00,91.8,64.0,29.65,SSW,196,0.0,0.0,40,0.00,,,0.00,meteohub,2013-07-22 19:52:00,
2013-07-22 13:57:00,91.9,64.2,29.65,SW,233,0.0,0.0,40,0.00,,,0.00,meteohub,2013-07-22 19:57:00,
2013-07-22 14:02:00,92.7,64.0,29.64,SW,223,0.0,0.0,39,0.00,,,0.00,meteohub,2013-07-22 20:02:00,
2013-07-22 14:07:00,93.2,63.9,29.64,ESE,117,0.0,0.0,38,0.00,,,0.00,meteohub,2013-07-22 20:07:00,
2013-07-22 14:13:00,93.7,63.5,29.64,ESE,112,0.0,0.0,37,0.00,,,0.00,meteohub,2013-07-22 20:13:00,
2013-07-22 14:17:00,94.5,64.2,29.64,ESE,119,0.0,0.0,37,0.00,,,0.00,meteohub,2013-07-22 20:17:00,
2013-07-22 14:18:00,94.6,63.5,29.64,South,188,0.0,0.0,36,0.00,,,0.00,meteohub,2013-07-22 20:18:00,
2013-07-22 14:20:00,94.6,62.8,29.64,East,96,0.0,0.0,35,0.00,,,0.00,meteohub,2013-07-22 20:20:00,
2013-07-22 14:25:00,94.3,62.4,29.63,East,85,0.0,0.0,35,0.00,,,0.00,meteohub,2013-07-22 20:25:00,
2013-07-22 14:31:00,93.9,63.0,29.63,East,84,0.0,0.0,36,0.00,,,0.00,meteohub,2013-07-22 20:31:00,
2013-07-22 14:36:00,93.7,61.9,29.63,East,86,0.0,0.0,35,0.00,,,0.00,meteohub,2013-07-22 20:36:00,
2013-07-22 14:41:00,93.6,61.0,29.63,East,87,0.0,0.0,34,0.00,,,0.00,meteohub,2013-07-22 20:41:00,
2013-07-22 14:45:00,93.7,61.2,29.63,SSW,199,0.0,0.0,34,0.00,,,0.00,meteohub,2013-07-22 20:45:00,
2013-07-22 14:50:00,93.7,62.8,29.63,ESE,117,0.0,0.0,36,0.00,,,0.00,meteohub,2013-07-22 20:50:00,
2013-07-22 14:55:00,94.3,61.5,29.62,ESE,112,0.0,0.0,34,0.00,,,0.00,meteohub,2013-07-22 20:55:00,
2013-07-22 15:00:00,94.5,61.0,29.62,SSW,192,0.0,0.0,33,0.00,,,0.00,meteohub,2013-07-22 21:00:00,
2013-07-22 15:06:00,94.8,61.2,29.63,SSW,205,0.0,0.0,33,0.00,,,0.00,meteohub,2013-07-22 21:06:00,
2013-07-22 15:11:00,95.0,63.1,29.62,WSW,237,0.0,0.0,35,0.00,,,0.00,meteohub,2013-07-22 21:11:00,
2013-07-22 15:16:00,95.5,61.9,29.62,SW,229,0.0,0.0,33,0.00,,,0.00,meteohub,2013-07-22 21:16:00,
2013-07-22 15:21:00,95.9,62.2,29.62,SW,229,0.0,0.0,33,0.00,,,0.00,meteohub,2013-07-22 21:21:00,
2013-07-22 15:26:00,96.4,62.6,29.61,SSW,206,0.0,0.0,33,0.00,,,0.00,meteohub,2013-07-22 21:26:00,
2013-07-22 15:32:00,96.3,64.2,29.61,SW,232,0.0,0.0,35,0.00,,,0.00,meteohub,2013-07-22 21:32:00,
2013-07-22 15:37:00,96.4,63.5,29.61,SE,135,0.0,0.0,34,0.00,,,0.00,meteohub,2013-07-22 21:37:00,
2013-07-22 15:42:00,97.0,63.1,29.61,SE,128,0.0,0.0,33,0.00,,,0.00,meteohub,2013-07-22 21:42:00,
2013-07-22 15:47:00,97.3,63.5,29.61,West,262,0.0,0.0,33,0.00,,,0.00,meteohub,2013-07-22 21:47:00,
2013-07-22 15:52:00,96.3,60.6,29.60,West,267,0.0,0.0,31,0.00,,,0.00,meteohub,2013-07-22 21:52:00,
2013-07-22 15:57:00,95.2,61.5,29.60,West,267,0.0,0.0,33,0.00,,,0.00,meteohub,2013-07-22 21:57:00,
2013-07-22 16:02:00,94.3,61.5,29.60,West,260,0.0,0.0,34,0.00,,,0.00,meteohub,2013-07-22 22:02:00,
2013-07-22 16:07:00,94.1,60.6,29.59,West,260,0.0,0.0,33,0.00,,,0.00,meteohub,2013-07-22 22:07:00,
2013-07-22 16:12:00,94.6,61.0,29.59,West,271,0.0,0.0,33,0.00,,,0.00,meteohub,2013-07-22 22:12:00,
2013-07-22 16:17:00,95.4,61.7,29.59,West,272,0.0,0.0,33,0.00,,,0.00,meteohub,2013-07-22 22:17:00,
2013-07-22 16:22:00,96.3,61.5,29.59,West,272,0.0,0.0,32,0.00,,,0.00,meteohub,2013-07-22 22:22:00,
2013-07-22 16:27:00,96.6,61.0,29.59,West,277,0.0,0.0,31,0.00,,,0.00,meteohub,2013-07-22 22:27:00,
2013-07-22 16:32:00,96.1,60.6,29.59,West,274,0.0,0.0,31,0.00,,,0.00,meteohub,2013-07-22 22:32:00,
2013-07-22 16:37:00,95.5,61.9,29.59,West,272,0.0,0.0,33,0.00,,,0.00,meteohub,2013-07-22 22:37:00,
2013-07-22 16:42:00,95.2,62.4,29.59,SSW,208,0.0,0.0,34,0.00,,,0.00,meteohub,2013-07-22 22:42:00,
2013-07-22 16:47:00,94.3,60.8,29.59,West,272,0.0,0.0,33,0.00,,,0.00,meteohub,2013-07-22 22:47:00,
2013-07-22 16:52:00,92.5,60.1,29.59,WSW,257,0.0,0.0,34,0.00,,,0.00,meteohub,2013-07-22 22:52:00,
2013-07-22 16:57:00,91.6,60.8,29.58,West,278,0.0,0.0,36,0.00,,,0.00,meteohub,2013-07-22 22:57:00,
2013-07-22 17:02:00,90.7,60.1,29.59,West,273,0.0,0.0,36,0.00,,,0.00,meteohub,2013-07-22 23:02:00,
2013-07-22 17:07:00,90.3,60.4,29.59,West,263,0.0,0.0,37,0.00,,,0.00,meteohub,2013-07-22 23:07:00,
2013-07-22 17:13:00,90.1,60.4,29.58,West,270,0.0,0.0,37,0.00,,,0.00,meteohub,2013-07-22 23:13:00,
2013-07-22 17:18:00,90.1,60.4,29.58,West,267,0.0,0.0,37,0.00,,,0.00,meteohub,2013-07-22 23:18:00,
2013-07-22 17:23:00,89.8,60.8,29.58,West,260,0.0,0.0,38,0.00,,,0.00,meteohub,2013-07-22 23:23:00,
2013-07-22 17:28:00,89.6,61.3,29.58,West,263,0.0,0.0,39,0.00,,,0.00,meteohub,2013-07-22 23:28:00,
2013-07-22 17:33:00,90.1,61.2,29.58,West,268,0.0,0.0,38,0.00,,,0.00,meteohub,2013-07-22 23:33:00,
2013-07-22 17:38:00,90.7,61.5,29.58,WNW,284,0.0,0.0,38,0.00,,,0.00,meteohub,2013-07-22 23:38:00,
2013-07-22 17:44:00,90.9,61.7,29.58,West,259,0.0,0.0,38,0.00,,,0.00,meteohub,2013-07-22 23:44:00,
2013-07-22 17:49:00,90.7,62.2,29.58,SW,234,0.0,0.0,39,0.00,,,0.00,meteohub,2013-07-22 23:49:00,
2013-07-22 17:54:00,90.3,62.8,29.58,WNW,288,0.0,0.0,40,0.00,,,0.00,meteohub,2013-07-22 23:54:00,
2013-07-22 17:59:00,90.3,63.5,29.58,WSW,258,0.0,0.0,41,0.00,,,0.00,meteohub,2013-07-22 23:59:00,
2013-07-22 18:04:00,89.6,62.1,29.58,West,265,0.0,0.0,40,0.00,,,0.00,meteohub,2013-07-23 00:04:00,
2013-07-22 18:09:00,89.1,63.0,29.58,WSW,258,0.0,0.0,42,0.00,,,0.00,meteohub,2013-07-23 00:09:00,
2013-07-22 18:15:00,88.7,62.1,29.58,WSW,244,0.0,0.0,41,0.00,,,0.00,meteohub,2013-07-23 00:15:00,
2013-07-22 18:20:00,88.5,61.9,29.58,SW,222,0.0,0.0,41,0.00,,,0.00,meteohub,2013-07-23 00:20:00,
2013-07-22 18:25:00,88.5,61.2,29.58,SW,227,0.0,0.0,40,0.00,,,0.00,meteohub,2013-07-23 00:25:00,
2013-07-22 18:30:00,88.5,61.2,29.59,WSW,239,0.0,0.0,40,0.00,,,0.00,meteohub,2013-07-23 00:30:00,
2013-07-22 18:35:00,88.9,60.8,29.59,WSW,239,0.0,0.0,39,0.00,,,0.00,meteohub,2013-07-23 00:35:00,
2013-07-22 18:41:00,88.9,64.2,29.59,SW,226,0.0,0.0,44,0.00,,,0.00,meteohub,2013-07-23 00:41:00,
2013-07-22 18:46:00,88.5,63.9,29.59,SW,224,0.0,0.0,44,0.00,,,0.00,meteohub,2013-07-23 00:46:00,
2013-07-22 18:51:00,88.2,62.2,29.60,SW,223,0.0,0.0,42,0.00,,,0.00,meteohub,2013-07-23 00:51:00,
2013-07-22 18:56:00,88.2,61.5,29.60,SW,221,0.0,0.0,41,0.00,,,0.00,meteohub,2013-07-23 00:56:00,
2013-07-22 19:01:00,88.2,66.0,29.60,SW,219,0.0,0.0,48,0.00,,,0.00,meteohub,2013-07-23 01:01:00,
2013-07-22 19:07:00,87.4,65.3,29.59,ESE,110,0.0,0.0,48,0.00,,,0.00,meteohub,2013-07-23 01:07:00,
2013-07-22 19:12:00,86.7,64.8,29.60,ESE,110,0.0,0.0,48,0.00,,,0.00,meteohub,2013-07-23 01:12:00,
2013-07-22 19:17:00,86.5,63.3,29.60,ESE,114,0.0,0.0,46,0.00,,,0.00,meteohub,2013-07-23 01:17:00,
2013-07-22 19:22:00,86.5,63.3,29.60,ESE,117,0.0,0.0,46,0.00,,,0.00,meteohub,2013-07-23 01:22:00,
2013-07-22 19:27:00,86.5,63.9,29.60,ESE,113,0.0,0.0,47,0.00,,,0.00,meteohub,2013-07-23 01:27:00,
2013-07-22 19:32:00,86.4,63.7,29.61,ENE,68,0.0,0.0,47,0.00,,,0.00,meteohub,2013-07-23 01:32:00,
2013-07-22 19:37:00,85.8,64.4,29.61,ESE,105,0.0,0.0,49,0.00,,,0.00,meteohub,2013-07-23 01:37:00,
2013-07-22 19:42:00,85.5,64.0,29.61,SSW,206,0.0,0.0,49,0.00,,,0.00,meteohub,2013-07-23 01:42:00,
2013-07-22 19:47:00,84.7,65.1,29.62,SSW,203,0.0,0.0,52,0.00,,,0.00,meteohub,2013-07-23 01:47:00,
2013-07-22 19:52:00,83.7,65.8,29.62,East,100,0.0,0.0,55,0.00,,,0.00,meteohub,2013-07-23 01:52:00,
2013-07-22 19:58:00,82.9,65.7,29.62,ESE,103,0.0,0.0,56,0.00,,,0.00,meteohub,2013-07-23 01:58:00,
2013-07-22 20:03:00,82.2,65.5,29.62,ESE,105,0.0,0.0,57,0.00,,,0.00,meteohub,2013-07-23 02:03:00,
2013-07-22 20:08:00,82.0,65.8,29.62,ESE,105,0.0,0.0,58,0.00,,,0.00,meteohub,2013-07-23 02:08:00,
2013-07-22 20:13:00,82.0,65.3,29.62,ESE,106,0.0,0.0,57,0.00,,,0.00,meteohub,2013-07-23 02:13:00,
2013-07-22 20:18:00,82.0,64.2,29.62,ESE,105,0.0,0.0,55,0.00,,,0.00,meteohub,2013-07-23 02:18:00,
2013-07-22 20:24:00,82.2,64.4,29.62,ESE,109,0.0,0.0,55,0.00,,,0.00,meteohub,2013-07-23 02:24:00,
2013-07-22 20:29:00,82.4,65.1,29.62,ESE,111,0.0,0.0,56,0.00,,,0.00,meteohub,2013-07-23 02:29:00,
2013-07-22 20:34:00,82.4,64.6,29.63,South,188,0.0,0.0,55,0.00,,,0.00,meteohub,2013-07-23 02:34:00,
2013-07-22 20:39:00,81.9,64.6,29.63,ESE,105,0.0,0.0,56,0.00,,,0.00,meteohub,2013-07-23 02:39:00,
2013-07-22 20:44:00,80.8,65.1,29.64,East,101,0.0,0.0,59,0.00,,,0.00,meteohub,2013-07-23 02:44:00,
2013-07-22 20:49:00,79.7,65.5,29.64,SSW,205,0.0,0.0,62,0.00,,,0.00,meteohub,2013-07-23 02:49:00,
2013-07-22 20:55:00,79.2,64.9,29.64,SSW,192,0.0,0.0,62,0.00,,,0.00,meteohub,2013-07-23 02:55:00,
2013-07-22 21:00:00,78.8,65.1,29.65,South,188,0.0,0.0,63,0.00,,,0.00,meteohub,2013-07-23 03:00:00,
2013-07-22 21:05:00,78.6,64.9,29.65,SW,215,0.0,0.0,63,0.00,,,0.00,meteohub,2013-07-23 03:05:00,
2013-07-22 21:10:00,78.4,65.3,29.65,ESE,110,0.0,0.0,64,0.00,,,0.00,meteohub,2013-07-23 03:10:00,
2013-07-22 21:15:00,78.3,65.1,29.65,East,86,0.0,0.0,64,0.00,,,0.00,meteohub,2013-07-23 03:15:00,
2013-07-22 21:20:00,78.1,65.3,29.66,East,97,0.0,0.0,65,0.00,,,0.00,meteohub,2013-07-23 03:20:00,
2013-07-22 21:26:00,77.7,65.5,29.67,ESE,105,0.0,0.0,66,0.00,,,0.00,meteohub,2013-07-23 03:26:00,
2013-07-22 21:31:00,77.5,65.7,29.67,East,90,0.0,0.0,67,0.00,,,0.00,meteohub,2013-07-23 03:31:00,
2013-07-22 21:36:00,77.5,65.7,29.68,ESE,105,0.0,0.0,67,0.00,,,0.00,meteohub,2013-07-23 03:36:00,
2013-07-22 21:41:00,77.4,65.5,29.68,ESE,107,0.0,0.0,67,0.00,,,0.00,meteohub,2013-07-23 03:41:00,
2013-07-22 21:46:00,77.4,65.5,29.68,ESE,106,0.0,0.0,67,0.00,,,0.00,meteohub,2013-07-23 03:46:00,
2013-07-22 21:51:00,77.4,65.5,29.69,SE,140,0.0,0.0,67,0.00,,,0.00,meteohub,2013-07-23 03:51:00,
2013-07-22 21:57:00,77.2,65.8,29.69,ESE,106,0.0,0.0,68,0.00,,,0.00,meteohub,2013-07-23 03:57:00,
2013-07-22 22:01:00,77.0,66.0,29.70,ESE,117,0.0,0.0,69,0.00,,,0.00,meteohub,2013-07-23 04:01:00,
2013-07-22 22:02:00,77.0,66.0,29.69,ESE,107,0.0,0.0,69,0.00,,,0.00,meteohub,2013-07-23 04:02:00,
2013-07-22 22:03:00,76.8,65.8,29.69,SSW,200,0.0,0.0,69,0.00,,,0.00,meteohub,2013-07-23 04:03:00,
2013-07-22 22:08:00,76.6,66.2,29.70,East,92,0.0,0.0,70,0.00,,,0.00,meteohub,2013-07-23 04:08:00,
2013-07-22 22:14:00,76.5,66.0,29.70,ESE,105,0.0,0.0,70,0.00,,,0.00,meteohub,2013-07-23 04:14:00,
2013-07-22 22:19:00,76.3,65.8,29.70,ESE,109,0.0,0.0,70,0.00,,,0.00,meteohub,2013-07-23 04:19:00,
2013-07-22 22:24:00,76.1,65.1,29.70,SSW,200,0.0,0.0,69,0.00,,,0.00,meteohub,2013-07-23 04:24:00,
2013-07-22 22:29:00,75.7,64.0,29.71,SSE,167,0.0,0.0,67,0.00,,,0.00,meteohub,2013-07-23 04:29:00,
2013-07-22 22:34:00,75.7,63.5,29.71,SSW,199,0.0,0.0,66,0.00,,,0.00,meteohub,2013-07-23 04:34:00,
2013-07-22 22:39:00,75.6,63.9,29.71,SSW,204,0.0,0.0,67,0.00,,,0.00,meteohub,2013-07-23 04:39:00,
2013-07-22 22:44:00,75.4,63.7,29.72,SSW,199,0.0,0.0,67,0.00,,,0.00,meteohub,2013-07-23 04:44:00,
2013-07-22 22:50:00,75.0,63.7,29.72,SSW,199,0.0,0.0,68,0.00,,,0.00,meteohub,2013-07-23 04:50:00,
2013-07-22 22:55:00,74.8,63.5,29.72,SSW,198,0.0,0.0,68,0.00,,,0.00,meteohub,2013-07-23 04:55:00,
2013-07-22 23:00:00,74.5,63.1,29.72,SSW,198,0.0,0.0,68,0.00,,,0.00,meteohub,2013-07-23 05:00:00,
2013-07-22 23:05:00,74.3,63.5,29.72,SSW,195,0.0,0.0,69,0.00,,,0.00,meteohub,2013-07-23 05:05:00,
2013-07-22 23:10:00,74.1,63.7,29.71,ESE,102,0.0,0.0,70,0.00,,,0.00,meteohub,2013-07-23 05:10:00,
2013-07-22 23:15:00,73.9,63.5,29.71,ESE,118,0.0,0.0,70,0.00,,,0.00,meteohub,2013-07-23 05:15:00,
2013-07-22 23:21:00,73.8,63.7,29.72,South,171,0.0,0.0,71,0.00,,,0.00,meteohub,2013-07-23 05:21:00,
2013-07-22 23:26:00,73.6,64.0,29.72,SSE,153,0.0,0.0,72,0.00,,,0.00,meteohub,2013-07-23 05:26:00,
2013-07-22 23:31:00,73.2,63.7,29.72,South,173,0.0,0.0,72,0.00,,,0.00,meteohub,2013-07-23 05:31:00,
2013-07-22 23:36:00,73.2,63.7,29.72,ESE,114,0.0,0.0,72,0.00,,,0.00,meteohub,2013-07-23 05:36:00,
2013-07-22 23:41:00,73.0,63.9,29.73,East,86,0.0,0.0,73,0.00,,,0.00,meteohub,2013-07-23 05:41:00,
2013-07-22 23:46:00,73.0,63.9,29.73,ESE,103,0.0,0.0,73,0.00,,,0.00,meteohub,2013-07-23 05:46:00,
2013-07-22 23:52:00,72.9,63.7,29.73,ESE,104,0.0,0.0,73,0.00,,,0.00,meteohub,2013-07-23 05:52:00,
2013-07-22 23:57:00,72.9,64.0,29.73,ESE,102,0.0,0.0,74,0.00,,,0.00,meteohub,2013-07-23 05:57:00,